SL-16 DEB

Satellite information

Favourite Embed

Satellite Type and Status

DEBRISIN ORBIT

Key statistics

Satellite SL-16 DEB at a glance.

Uptime

11985

Days in orbit

Revolutions

≈ 14.1

Per day

Orbit

LEO

Low Earth Orbit

Inclination

71.3

Latest

Satellite identification and parameters

Extended collection of information and parameters for SL-16 DEB.

Object identification

Identified? True

Debris? True

Object name: SL-16 DEB

International designator: 1992-093LC

Object number (NORAD): 39850

Object ID (CCSDS): 39850

Country: COMMONWEALTH OF INDEPENDENT STATES (CIS)

Current information (Y/N): Y

RCS size: SMALL

Orbital parameters

Period: 102.309 minutes

Inclination: 71.3366 deg

SMA: 7246.092 km

Apoapsis: 931.655 km

Periapsis: 804.26 km

RAAN: 269.9107 deg

Eccentricy: 0.00879065

Argument of periapsis: 59.0112 deg

Mean anomaly: 301.9607 deg

Mean motion: 14.07495297 rev/day

Mean motion (dot): 0.00001705 rev/day2

B* drag term: 0.0010013507 1/REarth

Two-line elements (TLE)

Creation date: Oct. 15, 2025, 6:23 p.m.

Reference frame: TEME

Reference center: EARTH

Epoch: Oct. 15, 2025, 4:47 a.m. UTC

TLE line 0: 0 SL-16 DEB

TLE line 1: 1 39850U 92093LC 25288.19969247 .00001705 00000-0 10014-2 0 9991

TLE line 2: 2 39850 71.3366 269.9107 0087907 59.0112 301.9607 14.07495297301857

Live tracking on map

Real-time ground track for satellite SL-16 DEB.

In-orbit conjunctions

A list of the most updated potential collisions computed for object SL-16 DEB.

Target Orbit TCA Probability of collision Miss distance Type
SL-16 DEB LEO 2025-07-16 21:18:26 0.0002629243 120.0 (m) DEBRIS
CZ-6A DEB LEO 2025-06-24 17:14:33 0.000103416 377.0 (m) DEBRIS
FENGYUN 1C DEB SSO 2025-04-11 20:10:32 0.0001125473 127.0 (m) DEBRIS

Associated space launch

Second generation ELING satellite

SL-16 DEB was lifted into orbit during the mission ‘Zenit-2 | Tselina-2 12’, on board a Zenit-2 space rocket.

The launch took place on Dec. 25, 1992, 5:56 a.m. from 45/1.

For more information about the launch, click the button.

Launch to space Zenit-2 | Tselina-2 12
Zenit-2 | Tselina-2 12

Agency: N/A

Status: Launch Successful

Launch date: Dec. 25, 1992, 5:56 a.m. UTC

Rocket: Zenit-2

Launch pad: 45/1

Location: Baikonur Cosmodrome, Republic of Kazakhstan

...

Latest news about this satellite

There are no fresh news available about this satellite. Check back as we update our databases every day.


Newsletter sign-up

Weekly statistics, charts and insights to help you stay on top of the space industry.